Other Public Products
Issued by NWS Charleston, SC

Current Version | Previous Version | Graphics & Text | Print | Product List | Glossary On
Versions: 1 2 3 4 5 6 7 8 9 10 11 12 13 14 15 16 17 18 19 20 21 22 23 24 25 26 27 28 29 30 31 32 33 34 35 36 37 38 39 40 41 42 43 44 45 46 47 48 49 50
000
FPUS82 KCHS 210827
OPUCHS

TEST...KCHS/KSAV Gateway Observations...TEST
National Weather Service Charleston SC
300 AM EST WED FEB 21 2018

NOTE: "fair" indicates few or no clouds below 12,000 feet with no
significant weather and/or obstructions to visibility.

SCZ050-WAZ558-NCZ071-TXZ119-213-PAZ071-DCZ001-FLZ074-172-MI076-
NYZ176-178-MAZ016-IL014-TNZ027-NJZ106-GAZ044-MD014-210900-

...Gateway Observations for Charleston International...

CITY           SKY/WX    TMP DP  RH WIND       PRES   REMARKS
Chas Airport   FAIR      66  65  96 SE9       30.41F
Seattle        CLEAR     30  24  78 NE7       30.29R WCI  23
Charlotte      CLOUDY    65  64  97 S7        30.42S
Dallas DFW     HVY RAIN  38  35  89 N18G26    30.19R FOG     WCI  28
Dallas Love    LGT RAIN  37  34  89 N20G28    30.20R WCI  27
Philladelphia  FAIR      57  57 100 S8        30.32F FOG
Wash National  FAIR      59  57  93 S10       30.33F
Baltimore      FAIR      60  59  96 S5        30.31F
Miami          FAIR      75  71  87 E15       30.30F
Detroit        HVY RAIN  53  52  96 SW8       30.07R FOG
Newark         CLOUDY    58  56  93 S3        30.30S
Laguardia      FOG       52  51  97 S9        30.30F VSB<1/4
J F K          FOG       45  45 100 S13       30.32F VSB 1/8
Boston Logan   FAIR      50  48  93 SW10      30.25F
Ft. Lauderdale MOCLDY    76  72  87 E18       30.30F
Chicago O`Hare CLOUDY    32  25  75 N13       30.25R WCI  22
Chicago Midway LGT RAIN  34  31  88 NW13      30.23R FOG     WCI  25
Houston Bush   CLOUDY    73  71  93 S10       30.08F
Houston Hobby  CLOUDY    71  71 100 SE7       30.08S
Nashville      MOCLDY    71  62  73 S16       30.20F
Atlanta        LGT RAIN  67  65  93 S8        30.36S

$$

GAZ044-118-TXZ119-213-NCZ071-DCZ001-MDZ014-506-PAZ021-071-NJZ106-
NYZ176-178-MAZ106-OHZ011-021-055-MIZ076-KYZ091-ILZ014-INZ047-
MNZ060-ONZ431-210900-

...Gateway Observations for Savannah International...

CITY           SKY/WX    TMP DP  RH WIND       PRES   REMARKS
Savannah Arpt  FAIR      68  67  96 S8        30.40S
Atlanta        LGT RAIN  67  65  93 S8        30.36S
Charlotte      CLOUDY    65  64  97 S7        30.42S
Dallas DFW     HVY RAIN  38  35  89 N18G26    30.19R FOG     WCI  28
Houston Bush   CLOUDY    73  71  93 S10       30.08F
Wash National  FAIR      59  57  93 S10       30.33F
Wash Dulles    FAIR      61  58  90 S10       30.31F
Baltimore      FAIR      60  59  96 S5        30.31F
Philadelphia   FAIR      57  57 100 S8        30.32F FOG
Newark         CLOUDY    58  56  93 S3        30.30S
Laguardia      FOG       52  51  97 S9        30.30F VSB<1/4
J F K          FOG       45  45 100 S13       30.32F VSB 1/8
Boston         FAIR      50  48  93 SW10      30.25F
Pittsburg      MOCLDY    62  49  62 S6        30.18F
Akron          MOCLDY    67  52  58 S18       30.12F
Cleveland      MOCLDY    68  54  60 S15       30.08F
Cincinnati     FAIR      66  59  78 S16G23    30.10F
Columbus       MOCLDY    65  55  69 S17       30.13S
Detroit        HVY RAIN  53  52  96 SW8       30.07R FOG
Chicago O`Hare CLOUDY    32  25  75 N13       30.25R WCI  22
Minneapolis    FAIR       7   2  80 W7        30.43R WCI  -5
Indianapolis   LGT RAIN  49  48  97 W9        30.15R FOG
Toronto Canada NOT AVBL

$$




USA.gov is the U.S. government's official web portal to all federal, state and local government web resources and services.